When you browse on this site, cookies collect data to enhance your experience and personalize the content and advertising you see.
Visit our Privacy Policy to learn more. By continuing to use the site, you agree to this use of cookies and data.
  • In Romania
  • List of Countries
  • For 7 days
  • Water Temperature
  • Weather Map
  • Weather Widgets
  • user-avatar
    Login

    Hourly Weather Algiers

    Today, 11 December, Wednesday

    Time Temperature Precipitation Wind Pressure Humidity
    00:00 +12°C° 0 mm 2 mps 754 mmHg 77%
    01:00 +12°C° 0 mm 2 mps 754 mmHg 75%
    02:00 +11°C° 0 mm 3 mps 754 mmHg 74%
    03:00 +11°C° 0 mm 3 mps 753 mmHg 72%
    04:00 +11°C° 0 mm 3 mps 753 mmHg 69%
    05:00 +11°C° 0 mm 3 mps 753 mmHg 65%
    06:00 +11°C° 0 mm 3 mps 753 mmHg 62%
    07:00 +11°C° 0 mm 3 mps 753 mmHg 58%
    08:00 +12°C° 0 mm 3 mps 753 mmHg 54%
    09:00 +13°C° 0 mm 3 mps 753 mmHg 50%
    10:00 +14°C° 0 mm 3 mps 753 mmHg 48%
    11:00 +17°C° 0 mm 3 mps 752 mmHg 46%
    12:00 +18°C° 0 mm 3 mps 751 mmHg 43%
    13:00 +18°C° 0 mm 4 mps 751 mmHg 47%
    14:00 +18°C° 0 mm 4 mps 750 mmHg 50%
    15:00 +17°C° 0 mm 5 mps 750 mmHg 54%
    16:00 +16°C° 0 mm 6 mps 750 mmHg 59%
    17:00 +15°C° 0 mm 7 mps 750 mmHg 64%
    18:00 +13°C° 0 mm 8 mps 750 mmHg 69%
    19:00 +13°C° 0 mm 8 mps 751 mmHg 68%
    20:00 +13°C° 0 mm 8 mps 751 mmHg 68%
    21:00 +13°C° 0 mm 8 mps 751 mmHg 67%
    22:00 +14°C° 0.2 mm 7 mps 752 mmHg 69%
    23:00 +14°C° 0.2 mm 6 mps 752 mmHg 71%

    Tomorrow, 12 December, Thursday

    Time Temperature Precipitation Wind Pressure Humidity
    00:00 +14°C° 0.2 mm 5 mps 752 mmHg 74%
    01:00 +13°C° 0.1 mm 5 mps 752 mmHg 72%
    02:00 +13°C° 0.1 mm 5 mps 752 mmHg 71%
    03:00 +12°C° 0.1 mm 4 mps 752 mmHg 69%
    04:00 +12°C° 0 mm 4 mps 752 mmHg 69%
    05:00 +12°C° 0 mm 3 mps 752 mmHg 68%
    06:00 +12°C° 0 mm 3 mps 752 mmHg 67%
    07:00 +12°C° 0 mm 4 mps 752 mmHg 66%
    08:00 +13°C° 0 mm 4 mps 752 mmHg 65%
    09:00 +13°C° 0 mm 5 mps 752 mmHg 64%
    10:00 +14°C° 0 mm 6 mps 751 mmHg 61%
    11:00 +15°C° 0 mm 7 mps 751 mmHg 58%
    12:00 +15°C° 0 mm 9 mps 751 mmHg 55%
    13:00 +15°C° 0 mm 9 mps 750 mmHg 56%
    14:00 +15°C° 0 mm 9 mps 750 mmHg 58%
    15:00 +13°C° 0 mm 9 mps 749 mmHg 60%
    16:00 +13°C° 0 mm 8 mps 749 mmHg 63%
    17:00 +12°C° 0 mm 7 mps 749 mmHg 65%
    18:00 +13°C° 0 mm 6 mps 749 mmHg 68%
    19:00 +11°C° 0.1 mm 7 mps 749 mmHg 71%
    20:00 +11°C° 0.1 mm 8 mps 750 mmHg 73%
    21:00 +11°C° 0.1 mm 9 mps 750 mmHg 76%
    22:00 +11°C° 0 mm 9 mps 749 mmHg 75%
    23:00 +11°C° 0 mm 9 mps 749 mmHg 74%

    Day after tomorrow, 13 December, Friday

    Time Temperature Precipitation Wind Pressure Humidity
    00:00 +11°C° 0 mm 10 mps 749 mmHg 72%
    01:00 +11°C° 0 mm 9 mps 748 mmHg 72%
    02:00 +11°C° 0 mm 9 mps 748 mmHg 72%
    03:00 +11°C° 0 mm 9 mps 747 mmHg 72%
    04:00 +11°C° 0 mm 9 mps 747 mmHg 73%
    05:00 +12°C° 0 mm 10 mps 747 mmHg 74%
    06:00 +12°C° 0 mm 10 mps 747 mmHg 75%
    07:00 +13°C° 0 mm 10 mps 747 mmHg 73%
    08:00 +14°C° 0 mm 11 mps 747 mmHg 70%
    09:00 +16°C° 0 mm 11 mps 747 mmHg 68%
    10:00 +15°C° 0 mm 12 mps 747 mmHg 67%
    11:00 +17°C° 0 mm 13 mps 746 mmHg 66%
    12:00 +18°C° 0 mm 14 mps 746 mmHg 64%
    13:00 +17°C° 0 mm 14 mps 746 mmHg 65%
    14:00 +17°C° 0 mm 14 mps 746 mmHg 65%
    15:00 +17°C° 0 mm 14 mps 746 mmHg 65%
    16:00 +17°C° 0 mm 13 mps 746 mmHg 66%
    17:00 +15°C° 0 mm 12 mps 747 mmHg 66%
    18:00 +16°C° 0 mm 11 mps 747 mmHg 66%
    19:00 +16°C° 0 mm 11 mps 748 mmHg 68%
    20:00 +14°C° 0 mm 11 mps 748 mmHg 70%
    21:00 +14°C° 0 mm 10 mps 749 mmHg 71%
    22:00 +14°C° 0 mm 10 mps 749 mmHg 72%
    23:00 +15°C° 0 mm 9 mps 749 mmHg 72%

    14 December, Saturday

    Time Temperature Precipitation Wind Pressure Humidity
    00:00 +13°C° 0 mm 9 mps 749 mmHg 73%
    01:00 +13°C° 0 mm 8 mps 749 mmHg 72%
    02:00 +13°C° 0 mm 8 mps 750 mmHg 72%
    03:00 +14°C° 0 mm 7 mps 750 mmHg 72%
    04:00 +14°C° 0 mm 7 mps 750 mmHg 72%
    05:00 +13°C° 0 mm 6 mps 750 mmHg 73%
    06:00 +13°C° 0 mm 5 mps 750 mmHg 74%
    07:00 +14°C° 0 mm 5 mps 751 mmHg 71%
    08:00 +15°C° 0 mm 5 mps 751 mmHg 69%
    09:00 +15°C° 0 mm 4 mps 752 mmHg 66%
    10:00 +17°C° 0 mm 4 mps 751 mmHg 62%
    11:00 +18°C° 0 mm 4 mps 751 mmHg 58%
    12:00 +19°C° 0 mm 4 mps 751 mmHg 54%
    13:00 +19°C° 0 mm 4 mps 751 mmHg 57%
    14:00 +19°C° 0 mm 4 mps 751 mmHg 59%
    15:00 +18°C° 0 mm 4 mps 750 mmHg 62%
    16:00 +17°C° 0 mm 4 mps 750 mmHg 66%
    17:00 +16°C° 0 mm 3 mps 751 mmHg 71%
    18:00 +16°C° 0 mm 3 mps 751 mmHg 75%
    19:00 +14°C° 0 mm 3 mps 751 mmHg 76%
    20:00 +15°C° 0 mm 2 mps 751 mmHg 76%
    21:00 +15°C° 0 mm 2 mps 751 mmHg 77%
    22:00 +15°C° 0 mm 2 mps 751 mmHg 75%
    23:00 +15°C° 0 mm 2 mps 751 mmHg 73%

    15 December, Sunday

    Time Temperature Precipitation Wind Pressure Humidity
    00:00 +15°C° 0 mm 2 mps 751 mmHg 71%
    01:00 +15°C° 0 mm 2 mps 751 mmHg 69%
    02:00 +15°C° 0 mm 1 mps 751 mmHg 67%
    03:00 +14°C° 0 mm 1 mps 751 mmHg 65%
    04:00 +14°C° 0 mm 1 mps 750 mmHg 64%
    05:00 +14°C° 0 mm 1 mps 750 mmHg 64%
    06:00 +14°C° 0 mm 1 mps 750 mmHg 63%
    07:00 +15°C° 0 mm 1 mps 751 mmHg 61%
    08:00 +16°C° 0 mm 1 mps 751 mmHg 59%
    09:00 +16°C° 0 mm 1 mps 751 mmHg 56%
    10:00 +18°C° 0 mm 1 mps 751 mmHg 53%
    11:00 +19°C° 0 mm 1 mps 751 mmHg 50%
    12:00 +20°C° 0 mm 1 mps 751 mmHg 47%
    13:00 +20°C° 0 mm 1 mps 750 mmHg 50%
    14:00 +19°C° 0 mm 2 mps 750 mmHg 53%
    15:00 +19°C° 0 mm 2 mps 749 mmHg 56%
    16:00 +18°C° 0 mm 2 mps 749 mmHg 59%
    17:00 +17°C° 0 mm 3 mps 750 mmHg 62%
    18:00 +16°C° 0 mm 3 mps 750 mmHg 64%
    19:00 +16°C° 0 mm 3 mps 750 mmHg 64%
    20:00 +16°C° 0 mm 3 mps 749 mmHg 64%
    21:00 +16°C° 0 mm 3 mps 749 mmHg 64%
    22:00 +16°C° 0 mm 3 mps 749 mmHg 62%
    23:00 +16°C° 0 mm 3 mps 749 mmHg 60%

    16 December, Monday

    Time Temperature Precipitation Wind Pressure Humidity
    00:00 +15°C° 0 mm 4 mps 749 mmHg 59%
    01:00 +15°C° 0 mm 4 mps 748 mmHg 58%
    02:00 +14°C° 0 mm 5 mps 748 mmHg 58%
    03:00 +14°C° 0 mm 5 mps 748 mmHg 58%
    04:00 +14°C° 0 mm 6 mps 748 mmHg 56%
    05:00 +14°C° 0 mm 6 mps 747 mmHg 55%
    06:00 +14°C° 0 mm 6 mps 747 mmHg 54%
    07:00 +15°C° 0 mm 7 mps 747 mmHg 52%
    08:00 +16°C° 0 mm 7 mps 747 mmHg 50%
    09:00 +16°C° 0 mm 7 mps 747 mmHg 48%
    10:00 +17°C° 0 mm 7 mps 747 mmHg 45%
    11:00 +18°C° 0 mm 7 mps 746 mmHg 42%
    12:00 +20°C° 0 mm 8 mps 746 mmHg 39%
    13:00 +20°C° 0 mm 7 mps 745 mmHg 40%
    14:00 +20°C° 0 mm 7 mps 745 mmHg 41%
    15:00 +20°C° 0 mm 6 mps 744 mmHg 41%
    16:00 +20°C° 0 mm 6 mps 744 mmHg 43%
    17:00 +19°C° 0 mm 6 mps 744 mmHg 45%
    18:00 +17°C° 0 mm 6 mps 744 mmHg 46%
    19:00 +17°C° 0 mm 7 mps 744 mmHg 47%
    20:00 +17°C° 0 mm 7 mps 744 mmHg 49%
    21:00 +16°C° 0 mm 7 mps 744 mmHg 50%
    22:00 +16°C° 0 mm 8 mps 743 mmHg 51%
    23:00 +16°C° 0 mm 8 mps 743 mmHg 51%
    Show more